Regional Weather Roundup
Issued by NWS Nashville, TN

Home | Current Version | Previous Version | Text Only | Print | Product List | Glossary On
Versions: 1 2 3 4 5 6 7 8 9 10 11 12 13 14 15 16 17 18 19 20 21 22 23 24 25 26 27 28 29 30 31 32 33 34 35 36 37 38 39 40 41 42 43 44 45 46 47 48 49 50
256
ASUS44 KOHX 281410
RWROHX
MIDDLE TENNESSEE HOURLY WEATHER ROUNDUP
NATIONAL WEATHER SERVICE NASHVILLE TN
900 AM CDT THU JUL 28 2016

NOTE: "FAIR" INDICATES FEW OR NO CLOUDS BELOW 12,000 FEET WITH
NO SIGNIFICANT WEATHER AND/OR OBSTRUCTIONS TO VISIBILITY.

* THESE REPORTS ARE NOT UNDER NWS QUALITY CONTROL AND MAY NOT
  REPORT WEATHER SUCH AS PRECIPITATION AND FOG.


TNZ005>011-023>034-057-059-062>066-078-080-281500
...NORTHERN MIDDLE TENNESSEE...

CITY           SKY/WX    TMP DP  RH WIND       PRES   REMARKS
CLARKSVILLE    RAIN      72  70  93 CALM      29.93F FOG
CROSSVILLE     PTSUNNY   75  69  81 VRB7      30.02F
NASHVILLE      CLOUDY    77  73  87 S8        29.94S
SMYRNA         CLOUDY    78  73  84 S7        29.95S
SPARTA         CLOUDY    79  73  83 SW8       29.97S
$$
TNZ056-058-060-061-075>077-079-093>097-281500
...SOUTHERN MIDDLE TENNESSEE...

CITY           SKY/WX    TMP DP  RH WIND       PRES   REMARKS
COLUMBIA       CLOUDY   N/A N/A N/A S6        29.92S
FAYETTEVILLE   CLOUDY    75  73  94 S10       29.98F FOG
MCMINNVILLE    PTSUNNY   81  73  78 SW7       29.97F
SHELBYVILLE    CLOUDY    77  73  88 S10       29.97S
TULLAHOMA      CLOUDY    75  70  83 S13       29.99S
WINCHESTER     CLOUDY    79  70  73 S9        29.99S
$$


...KEY TO REMARKS...
VSB - VISIBILITY IN MILES
WCI - WIND CHILL INDEX
HX  - HEAT INDEX





USA.gov is the U.S. government's official web portal to all federal, state and local government web resources and services.